This is the latest recevied weather packets stored in our database for station/object PA3CPS. If no packets are shown the sender has not sent any weather packets the latest 10 day(s).
| Time | Temp. | Humidity | Pressure | Rain* | Wind** | Luminosity | Snow |
|---|---|---|---|---|---|---|---|
| 1777817622 | 16.67° C | 89% | 1009.9 hPa | 0.76 mm | - | 178 W/m² | - |
| 1777817327 | 16.67° C | 88% | 1009.9 hPa | 0.76 mm | - | 151 W/m² | - |
| 1777817019 | 16.67° C | 88% | 1009.9 hPa | 0.76 mm | - | 148 W/m² | - |
| 1777816718 | 16.67° C | 88% | 1010 hPa | 0.76 mm | - | 178 W/m² | - |
| 1777816418 | 16.67° C | 87% | 1010 hPa | 0.76 mm | - | 186 W/m² | - |
| 1777816115 | 16.67° C | 86% | 1010.1 hPa | 0.51 mm | - | 179 W/m² | - |
| 1777815814 | 16.67° C | 85% | 1010 hPa | 0.51 mm | - | 142 W/m² | - |
| 1777815515 | 17.22° C | 83% | 1009.9 hPa | 0.51 mm | - | 97 W/m² | - |
| 1777815211 | 17.78° C | 82% | 1010 hPa | 0.25 mm | - | 74 W/m² | - |
| 1777814913 | 17.78° C | 81% | 1010.2 hPa | 0 mm | - | 60 W/m² | - |
| 1777814611 | 17.78° C | 81% | 1010 hPa | 0 mm | - | 86 W/m² | - |
| 1777814313 | 18.33° C | 82% | 1009.9 hPa | 0 mm | - | 134 W/m² | - |
| 1777814007 | 18.33° C | 81% | 1009.9 hPa | 0 mm | - | 149 W/m² | - |
| 1777813706 | 18.89° C | 80% | 1009.7 hPa | 0 mm | - | 160 W/m² | - |
| 1777813405 | 19.44° C | 78% | 1009.6 hPa | 0 mm | - | 176 W/m² | - |
| 1777813104 | 19.44° C | 75% | 1009.6 hPa | 0 mm | - | 146 W/m² | - |
| 1777812801 | 20° C | 75% | 1009.6 hPa | 0 mm | - | 246 W/m² | - |
| 1777812502 | 20° C | 75% | 1009.6 hPa | 0 mm | - | 316 W/m² | - |
| 1777812198 | 20° C | 74% | 1009.6 hPa | 0 mm | - | 287 W/m² | - |
| 1777811899 | 20° C | 73% | 1009.6 hPa | 0 mm | - | 302 W/m² | - |
| 1777811596 | 20° C | 73% | 1009.7 hPa | 0 mm | - | 309 W/m² | - |
| 1777811294 | 20.56° C | 74% | 1009.6 hPa | 0 mm | - | 316 W/m² | - |
| 1777810993 | 20.56° C | 74% | 1009.7 hPa | 0 mm | - | 315 W/m² | - |
| 1777810692 | 20.56° C | 74% | 1009.7 hPa | 0 mm | - | 322 W/m² | - |
| 1777810390 | 20.56° C | 73% | 1009.7 hPa | 0 mm | - | 272 W/m² | - |
* Rain latest hour (hover to see other rain measurements)
** Current wind speed in m/s (hover to see current wind gust speed)